Regional Weather Roundup
Issued by NWS Jackson, KY

Home | Current Version | Previous Version | Text Only | Print | Product List | Glossary On
Versions: 1 2 3 4 5 6 7 8 9 10 11 12 13 14 15 16 17 18 19 20 21 22 23 24 25 26 27
000
ASUS43 KJKL 230910
RWRJKL

EAST KENTUCKY HOURLY WEATHER ROUNDUP
NATIONAL WEATHER SERVICE JACKSON KY
500 AM EDT TUE MAY 23 2017

NOTE: "FAIR" INDICATES FEW OR NO CLOUDS BELOW 12,000 FEET WITH
NO SIGNIFICANT WEATHER AND/OR OBSTRUCTIONS TO VISIBILITY.

* THESE REPORTS ARE NOT UNDER NWS QUALITY CONTROL AND MAY NOT
  REPORT WEATHER SUCH AS PRECIPITATION AND FOG.

KYZ079-080-083-085-087-088-110-112-115-119-120-231000
...EASTERN KENTUCKY...

CITY           SKY/WX    TMP DP  RH WIND       PRES   REMARKS
JACKSON        CLOUDY    56  50  80 CALM      29.89F
LONDON         CLOUDY    57  52  83 NE3       29.88F
SOMERSET*      CLOUDY    55  50  82 CALM      29.89F
MONTICELLO*    CLOUDY    58  55  90 W6        29.89F
WILLIAMSBURG*  CLOUDY    55  55 100 CALM      29.88F
MIDDLESBORO*   CLOUDY    58  58  98 CALM      29.90S
HARLAN APT*    CLOUDY    55  54  94 CALM      29.89F
PIKE CO APT*   MOCLDY    55  55 100 NE6       29.88F
BIG SANDY APT* CLOUDY    54  53  96 CALM      29.89F
MOREHEAD APT*  CLOUDY    57  50  77 CALM      29.91F
$$

KYZ035-036-041-042-044-050-067-078-099-231000
...CENTRAL KENTUCKY...

CITY           SKY/WX    TMP DP  RH WIND       PRES   REMARKS
MT STERLING*   CLOUDY    55  52  88 SE3       29.91S
FLEMING/MASON* CLOUDY    53  51  93 E3        29.90F
DANVILLE*      CLOUDY    54  52  94 CALM      29.90S
LEXINGTON      CLOUDY    58  50  75 CALM      29.90S
FRANKFORT      CLOUDY    56  51  84 CALM      29.89S
LOUISVILLE     CLOUDY    59  52  77 CALM      29.88F
LEBANON*         N/A     55  54  94 CALM      29.88F
GLASGOW*       CLOUDY    59  53  81 NE3       29.86F
BOWLING GREEN  CLOUDY    60  56  86 E3        29.87F
$$

KYZ091>093-OHZ055-061-077-WVZ005-015-034-035-042-231000
...SOUTHERN OHIO/WEST VIRGINIA...

CITY           SKY/WX    TMP DP  RH WIND       PRES   REMARKS
COVINGTON      CLOUDY    54  47  77 CALM      29.90F
COLUMBUS       MOCLDY    52  49  89 CALM      29.92F
DAYTON         CLOUDY    51  46  83 CALM      29.93S
WILMINGTON     CLOUDY    49  47  93 NE5       29.92S
HUNTINGTON     CLOUDY    54  51  90 CALM      29.91F
CHARLESTON     CLOUDY    53  51  93 CALM      29.90F
PINEVILLE*     CLOUDY    55  54  97 MISG      29.95F
BECKLEY        CLOUDY    52  50  93 CALM      29.93F
BLUEFIELD      CLOUDY    52  51  97 E5        29.94F
LOGAN CO APT*    N/A     54  54 100 CALM      29.89F
$$

VAZ002-007-008-TNZ017-027-036-066-071-231000
...SOUTHWEST VIRGINIA/EAST TENNESSEE...

CITY           SKY/WX    TMP DP  RH WIND       PRES   REMARKS
WISE*          CLOUDY    55  55 100 CALM      29.92F
JONESVILLE*    CLOUDY    59  57  94 CALM      29.90S
ABINGDON*      CLOUDY    63  58  85 E8        29.89F
BRISTOL        CLOUDY    62  58  86 CALM      29.86F
MORRISTOWN*    CLOUDY    63  63 100 CALM      29.86S
SEVIERVILLE*   CLOUDY    64  63  94 CALM      29.84F
KNOXVILLE      CLOUDY    64  62  93 NW6       29.84F FOG
LAFOLLETTE*    CLOUDY    61  59  94 CALM      29.90F
OAK RIDGE      CLOUDY    63  57  81 CALM      29.89S
CROSSVILLE     CLOUDY    61  56  83 CALM      29.89F
NASHVILLE      CLOUDY    63  55  75 N6        29.85F
$$

...KEY TO REMARKS...
VSB - VISIBILITY IN MILES
WCI - WIND CHILL INDEX
HX  - HEAT INDEX

$$




USA.gov is the U.S. government's official web portal to all federal, state and local government web resources and services.